Temperature
21 20 19 18 17 16 16 16 16 16 16 16 16 15 15 15 15 15 15 15 15 14 14 14 14 14 14 14 14 14 15 15 15 15 16 16 16 15 15 15 13 12 13
22 21 19 18 17 16 16 16 16 16 16 15 15 15 15 15 15 15 15 15 14 14 14 14 14 14 14 14 14 14 15 15 15 15 15 15 15 15 15 14 13 13 13
21 21 19 18 17 16 16 16 16 16 15 15 15 15 15 15 15 15 15 15 14 14 14 14 14 14 14 14 14 14 14 14 15 15 14 13 14 14 14 14 14 13 13
20 20 19 18 17 16 16 16 16 15 15 15 15 15 15 15 15 15 14 14 14 14 14 14 14 14 14 14 14 14 14 14 14 14 13 13 12 14 14 13 13 13 13
19 19 19 19 17 17 16 16 16 15 15 15 15 15 15 16 16 15 14 14 14 14 14 14 14 14 15 14 14 14 14 14 14 13 13 13 13 13 13 13 13 13 13
18 18 19 18 18 17 16 16 16 16 15 15 15 15 16 16 16 15 15 15 14 14 14 14 14 15 15 14 14 14 13 13 13 12 12 12 12 13 13 13 13 13 13
17 17 18 18 18 17 17 17 16 16 15 15 15 15 16 16 16 16 15 15 14 14 14 15 15 15 14 14 14 14 13 13 12 12 12 12 12 13 13 13 13 13 13
17 17 18 18 17 17 17 17 16 16 15 15 15 15 16 16 16 16 15 15 15 15 15 15 15 14 14 14 14 14 13 13 12 12 12 12 12 12 12 12 12 12 12
17 17 17 17 17 17 17 17 17 16 15 15 15 15 15 15 16 16 15 15 15 15 15 15 14 14 14 14 14 14 13 13 12 12 12 12 12 12 12 12 12 12 12
17 17 17 17 16 17 17 17 17 16 15 15 14 14 15 15 15 15 15 15 15 15 15 14 14 14 14 14 14 13 13 13 12 12 12 12 12 12 12 12 11 11 11
17 17 17 17 16 16 16 17 17 16 15 14 14 14 14 14 14 15 15 15 15 14 14 14 14 14 14 14 13 13 13 12 12 11 11 11 11 11 11 11 11 11 11
17 17 16 16 16 16 16 17 16 16 15 15 14 14 14 13 13 13 14 15 15 14 14 14 14 14 13 13 13 13 12 12 11 11 11 11 11 11 11 11 11 11 11
16 17 17 16 17 16 17 16 16 16 15 15 14 15 14 13 13 13 14 14 14 14 14 14 14 13 13 13 13 13 12 11 11 10 10 11 10 10 11 11 11 11 10
16 16 17 17 17 17 16 16 16 16 16 15 15 15 15 14 14 14 13 13 14 14 14 14 13 13 13 13 13 13 12 12 11 10 10 10 10 10 10 10 10 10 10
16 16 17 17 17 17 17 16 16 16 16 16 16 16 15 15 15 14 14 14 14 13 14 14 13 13 13 13 13 13 12 11 10 10 10 10 10 10 10 10 9 9 9
16 16 16 17 17 17 17 17 17 16 16 15 16 16 16 15 15 15 14 14 14 14 13 13 13 13 13 13 12 12 12 11 10 10 9 10 10 10 9 9 9 9 9
16 16 16 16 16 17 17 17 17 17 16 16 16 15 15 15 15 15 15 14 14 14 13 13 13 13 12 12 12 12 12 11 11 10 9 9 9 9 9 9 9 9 9
16 16 16 16 17 17 17 17 17 17 17 16 16 16 15 15 15 15 15 14 14 14 13 13 13 12 12 12 12 12 12 11 11 10 10 9 9 9 9 9 9 9 8
17 17 17 16 16 17 17 17 17 17 17 17 16 16 16 15 15 15 14 14 14 14 13 13 12 12 12 12 11 11 11 11 11 10 10 9 9 9 8 9 8 8 8
16 17 17 17 17 16 16 16 16 16 17 17 17 17 17 16 16 15 15 14 14 14 13 13 12 12 12 11 11 11 11 11 11 10 10 9 9 9 9 8 8 8 8
16 16 16 16 17 16 16 15 16 16 17 18 18 18 17 17 16 16 15 15 14 14 13 13 12 12 11 11 11 10 10 10 10 10 10 9 9 9 9 9 8 8 8
16 16 16 16 16 16 16 16 16 16 16 17 17 17 17 17 17 16 16 15 15 14 14 13 12 12 12 11 10 10 9 9 10 10 10 10 9 9 9 9 8 8 7
15 15 16 16 16 16 16 16 15 15 15 15 16 17 17 17 17 16 16 15 15 15 14 14 13 12 12 11 11 10 10 10 10 11 11 10 9 9 9 9 8 8 7
13 14 14 15 15 15 16 15 15 14 14 15 15 16 16 16 16 16 15 15 14 15 14 14 13 13 12 12 11 11 11 11 11 10 10 10 10 9 9 9 8 8 7
13 13 13 14 14 15 15 15 15 14 13 13 13 14 14 15 15 15 14 14 14 14 14 14 14 13 12 12 12 11 11 10 11 11 10 10 10 9 9 8 8 7 7
12 13 13 13 13 14 14 14 14 14 13 13 13 13 13 13 14 14 14 13 13 13 14 14 14 13 13 12 12 12 11 11 11 10 10 10 10 10 9 8 7 7 6
Wind_Speed
11 16 18 16 15 16 17 18 18 17 17 16 15 14 12 11 9 6 5 4 5 6 10 13 15 15 15 14 14 14 14 14 14 13 13 12 11 11 10 8 4 9 8
15 18 19 16 16 16 17 18 18 17 17 16 15 13 12 10 8 7 6 5 7 10 12 15 15 15 15 14 14 13 13 13 12 11 9 11 10 9 9 8 8 8 7
17 19 19 17 16 16 17 18 18 17 16 15 14 12 11 10 9 8 8 9 11 13 15 16 15 15 14 13 13 12 12 11 11 8 4 8 9 8 7 6 6 6 6
17 18 18 18 16 16 17 18 18 17 16 15 13 12 11 10 9 9 10 12 14 15 15 15 14 14 13 12 11 11 10 9 8 2 6 8 8 7 5 5 5 4 4
15 16 17 19 17 16 16 17 17 16 16 15 13 12 11 10 10 10 11 13 14 14 14 13 13 12 11 11 10 9 9 8 5 4 8 7 7 6 5 4 4 4 3
15 16 18 17 17 15 15 16 16 16 15 15 14 13 11 11 10 11 11 12 12 13 12 12 11 10 9 9 8 8 7 6 3 7 7 6 7 8 8 9 10 10 11
14 14 17 17 16 15 14 14 15 16 16 15 14 13 12 11 11 10 10 10 10 10 11 10 10 9 8 7 6 6 6 4 4 6 6 7 9 10 12 14 16 16 17
13 13 15 16 15 13 13 13 14 15 16 15 14 13 13 12 11 10 9 9 9 9 9 9 9 8 7 6 5 6 6 3 4 5 5 7 10 11 15 17 17 17 18
13 13 13 14 14 12 12 12 13 14 16 16 15 14 13 13 12 11 9 9 9 9 9 9 9 8 7 6 6 7 6 3 3 4 5 7 12 14 15 16 15 15 15
12 12 12 13 12 13 12 12 12 14 16 16 15 14 14 13 12 11 10 8 8 8 9 9 9 8 8 7 7 8 7 4 4 4 5 10 12 13 14 13 13 13 13
10 11 11 12 11 11 10 12 13 13 16 17 15 15 14 11 11 11 9 9 8 8 9 10 10 9 9 9 8 7 5 3 4 4 6 12 12 12 12 11 11 12 12
12 12 11 11 11 11 9 10 12 13 15 15 14 15 13 10 9 8 11 10 8 8 9 11 11 9 6 6 7 6 4 4 4 5 8 12 11 11 10 10 10 10 10
11 11 11 11 11 11 9 9 9 10 11 14 14 15 13 11 9 9 10 11 10 10 10 10 9 6 5 4 4 4 4 4 4 6 9 11 11 10 9 9 9 9 9
10 12 12 12 11 11 10 9 9 9 10 11 13 15 13 10 9 9 9 10 10 9 9 8 6 6 6 5 5 5 6 5 5 5 9 11 11 9 8 8 7 8 8
11 11 12 13 12 11 11 9 9 9 10 12 12 14 14 11 10 10 9 10 10 9 9 8 8 7 6 6 5 6 6 6 7 7 9 11 11 9 8 7 7 7 7
12 12 13 14 14 13 11 10 10 11 11 12 13 15 16 14 11 10 10 10 11 11 10 9 9 7 6 6 6 6 6 7 7 8 8 10 10 10 8 7 7 6 6
12 13 14 14 15 15 15 13 12 12 12 12 13 15 17 16 14 12 10 10 11 12 11 9 9 7 6 6 6 7 7 7 8 8 8 8 9 9 9 8 7 6 6
11 13 14 13 15 17 16 14 12 12 13 12 13 14 18 19 17 14 11 11 13 12 11 9 8 7 7 7 6 6 7 7 9 9 9 9 8 9 9 8 7 6 5
11 12 13 14 16 16 16 13 13 12 12 13 14 14 17 19 19 16 12 12 14 12 10 9 9 9 8 8 7 6 6 7 8 9 10 10 9 9 9 9 8 6 4
9 10 12 13 15 15 14 12 11 11 12 13 14 15 18 18 20 18 13 14 14 11 11 11 11 9 8 7 7 6 6 7 7 9 10 10 10 11 10 10 9 7 5
7 9 11 12 13 13 12 12 13 14 14 13 13 17 18 18 19 18 13 14 14 13 14 15 12 12 8 8 6 5 6 7 9 8 9 10 11 12 11 11 9 8 6
5 7 9 10 11 13 12 12 13 14 13 14 12 14 18 19 19 17 18 15 15 14 16 17 14 10 8 10 8 5 6 7 9 10 10 10 11 12 12 12 10 9 7
4 5 6 8 9 10 12 11 11 12 12 12 13 14 17 19 20 18 18 17 16 16 15 18 18 16 11 11 11 8 6 8 6 8 12 11 11 10 10 11 11 9 8
6 6 6 6 7 8 9 11 15 14 15 17 15 14 16 17 18 19 18 17 16 15 17 18 18 16 15 12 10 9 7 3 5 6 7 10 12 11 11 9 10 9 8
7 6 6 6 5 5 6 9 12 15 15 14 15 16 16 15 16 17 17 16 16 16 18 18 18 19 16 15 11 8 8 5 6 5 5 7 8 9 9 9 9 9 9
8 7 7 7 7 6 6 7 10 13 15 16 16 15 15 13 13 17 16 16 16 15 18 18 18 20 18 17 14 11 9 7 9 8 7 4 6 6 8 7 7 8 8
Wind_Direction
154 153 151 153 152 151 150 147 143 139 135 131 128 124 121 118 116 112 111 117 131 134 123 116 110 101 95 92 89 87 85 82 79 74 71 73 79 80 75 62 52 79 65
150 151 148 152 154 154 152 147 141 137 134 131 128 125 123 121 118 113 109 113 125 125 117 111 106 101 97 95 94 91 88 85 82 77 80 86 79 77 75 61 43 64 63
148 148 152 152 153 152 149 143 139 137 135 132 130 128 125 123 121 111 100 99 109 112 107 105 102 101 100 98 96 93 90 88 85 86 102 88 85 78 76 67 63 66 62
149 149 156 149 152 150 146 143 142 140 138 135 132 128 126 126 124 114 99 97 99 100 99 99 99 101 102 101 98 94 92 92 90 103 85 77 81 77 79 73 65 60 53
151 151 148 150 152 151 149 149 148 145 142 138 133 128 127 129 128 117 100 95 95 96 96 97 99 102 104 102 98 96 95 97 103 85 78 74 74 70 71 72 61 63 56
153 152 150 151 149 149 150 152 153 151 147 140 134 131 130 131 129 117 103 97 96 97 98 100 101 103 104 102 99 99 101 112 131 79 74 68 72 74 75 77 79 74 69
155 153 153 150 149 151 155 158 160 157 152 146 141 138 136 133 129 123 115 109 107 107 108 109 107 106 103 101 101 103 107 111 85 84 73 69 72 76 83 82 78 75 72
156 155 154 151 149 156 162 166 168 163 157 152 149 147 142 137 135 134 130 125 122 122 121 119 114 109 103 101 103 109 114 127 107 90 80 77 77 85 87 81 77 73 70
161 161 162 165 164 164 170 175 176 171 163 159 157 155 149 144 143 144 142 139 137 135 131 126 119 113 108 106 108 112 118 130 116 96 90 87 93 92 88 83 78 74 71
169 170 170 173 175 177 180 182 183 177 169 164 163 161 155 153 154 155 159 153 148 144 140 132 123 117 112 110 113 117 129 162 113 117 109 103 99 95 89 84 79 74 71
181 182 181 180 181 183 183 177 186 181 175 171 172 168 170 177 171 170 166 159 163 157 149 137 129 124 120 115 116 129 157 157 132 120 112 109 105 97 92 86 83 78 74
189 191 191 190 188 188 183 182 190 189 186 190 188 184 193 192 185 177 163 175 175 163 152 142 138 143 157 141 138 164 164 157 148 135 118 116 111 103 97 93 89 84 79
195 197 201 200 198 195 190 192 191 193 195 200 197 193 196 194 189 190 180 183 186 178 172 153 167 176 176 161 167 171 162 167 158 142 130 123 119 112 107 101 94 89 83
204 204 206 208 206 206 204 199 201 199 199 202 203 201 199 199 200 198 198 193 192 194 190 191 196 181 180 178 181 174 172 178 169 152 131 128 126 123 119 111 103 96 89
215 213 212 213 213 211 212 213 212 211 208 207 207 208 206 204 205 203 206 201 203 200 196 200 200 191 189 184 185 187 183 180 173 161 142 131 131 133 131 126 117 107 98
221 219 215 215 217 216 215 216 218 219 216 218 212 211 211 212 210 206 208 206 206 204 204 203 204 195 193 190 189 192 190 183 182 176 159 143 134 138 142 138 127 115 104
229 225 219 217 217 218 220 221 222 223 222 221 219 216 214 215 214 210 211 207 207 205 203 205 200 198 192 189 192 192 193 192 187 182 176 168 156 146 150 149 139 125 109
241 234 229 220 220 220 221 221 222 223 224 227 224 221 218 217 216 214 213 210 206 201 199 198 195 194 192 194 193 189 193 193 196 190 184 181 175 167 160 154 149 136 120
247 242 237 229 228 226 224 223 223 222 223 227 228 224 220 218 215 214 215 211 204 201 201 199 200 200 198 195 192 189 195 195 196 196 196 189 185 183 175 155 148 137 132
256 250 244 238 234 233 230 228 225 224 225 226 228 228 225 220 216 214 214 212 203 201 202 201 199 199 200 186 180 189 199 202 203 203 202 195 190 191 192 182 177 163 153
262 253 248 245 239 235 231 226 225 226 227 227 227 229 228 224 218 214 213 210 204 206 204 203 197 193 189 174 171 191 206 215 216 209 207 203 199 197 198 197 201 197 189
282 271 261 252 248 241 234 232 232 232 232 231 227 228 228 226 221 216 215 211 207 208 206 203 195 194 186 185 188 188 207 209 218 215 210 211 207 201 205 204 204 204 208
338 312 290 275 264 254 248 242 239 237 237 233 230 228 226 224 222 218 220 217 210 208 207 204 199 195 192 195 201 196 200 214 191 197 212 211 210 207 207 204 203 201 202
359 340 316 299 281 268 256 244 238 234 233 233 232 232 230 225 223 220 221 221 215 213 211 206 204 205 199 195 204 225 239 227 186 183 198 211 212 213 208 199 197 192 192
357 347 337 326 309 290 266 250 247 245 245 245 242 240 237 230 223 219 219 220 219 217 218 211 206 207 206 202 195 195 209 220 227 205 189 188 202 211 207 199 191 184 180
356 350 341 333 326 317 294 268 251 250 249 248 246 244 241 237 228 221 217 218 219 219 222 218 211 211 210 210 203 196 193 194 205 212 209 179 184 183 190 191 191 181 175
Height
1529 1531 1532 1534 1537 1539 1542 1544 1545 1547 1548 1549 1550 1551 1551 1551 1551 1551 1550 1550 1550 1550 1551 1552 1553 1553 1553 1553 1553 1553 1553 1553 1553 1552 1552 1552 1551 1551 1550 1550 1551 1552 1551
1528 1531 1532 1535 1537 1540 1542 1545 1546 1547 1549 1550 1550 1551 1551 1551 1551 1551 1551 1551 1551 1552 1553 1554 1554 1554 1554 1554 1554 1553 1553 1553 1553 1553 1553 1553 1553 1552 1552 1551 1551 1552 1552
1528 1531 1533 1535 1538 1541 1543 1545 1546 1548 1549 1550 1551 1551 1551 1551 1551 1551 1552 1552 1553 1554 1554 1555 1556 1556 1556 1555 1555 1555 1555 1555 1555 1555 1555 1556 1555 1554 1554 1553 1553 1553 1553
1529 1532 1534 1536 1539 1541 1543 1545 1547 1548 1549 1550 1550 1551 1551 1551 1551 1552 1553 1554 1555 1555 1556 1557 1557 1557 1557 1557 1556 1556 1556 1556 1556 1556 1558 1558 1557 1556 1556 1555 1555 1555 1554
1530 1533 1534 1536 1539 1541 1543 1545 1547 1548 1549 1550 1551 1551 1551 1552 1552 1553 1554 1555 1556 1557 1557 1558 1558 1558 1558 1558 1558 1558 1558 1558 1558 1559 1559 1558 1558 1557 1557 1557 1556 1556 1556
1531 1534 1535 1537 1540 1542 1544 1545 1547 1548 1549 1550 1551 1552 1552 1552 1553 1554 1555 1556 1557 1558 1558 1559 1559 1559 1560 1560 1560 1560 1559 1560 1560 1560 1560 1560 1560 1559 1558 1558 1558 1557 1557
1532 1535 1536 1538 1540 1542 1544 1546 1547 1548 1550 1551 1552 1552 1553 1553 1554 1555 1556 1557 1558 1559 1559 1560 1560 1561 1561 1561 1561 1561 1561 1561 1562 1562 1561 1561 1560 1560 1559 1559 1559 1558 1558
1533 1535 1536 1538 1541 1543 1545 1546 1547 1549 1550 1551 1552 1553 1554 1554 1555 1556 1556 1557 1558 1559 1560 1560 1561 1561 1561 1562 1562 1562 1562 1562 1562 1563 1562 1562 1561 1560 1560 1559 1559 1559 1558
1534 1535 1537 1539 1541 1543 1545 1546 1548 1549 1550 1551 1552 1553 1554 1555 1556 1557 1557 1558 1559 1559 1560 1561 1561 1561 1562 1562 1562 1562 1562 1562 1564 1563 1563 1562 1561 1561 1560 1560 1559 1559 1558
1533 1535 1537 1539 1541 1543 1545 1546 1548 1549 1551 1552 1553 1554 1555 1555 1556 1557 1558 1559 1559 1560 1560 1561 1561 1562 1562 1562 1562 1562 1562 1563 1564 1563 1563 1562 1561 1561 1560 1559 1558 1558 1557
1532 1534 1537 1539 1541 1543 1545 1546 1547 1549 1551 1552 1553 1553 1554 1556 1557 1557 1558 1559 1560 1560 1561 1561 1562 1562 1562 1562 1562 1562 1562 1563 1563 1564 1563 1561 1561 1560 1559 1558 1558 1557 1556
1530 1533 1535 1538 1540 1542 1543 1545 1547 1548 1550 1551 1553 1553 1555 1556 1557 1558 1557 1558 1559 1560 1560 1561 1561 1561 1562 1562 1561 1561 1562 1562 1563 1563 1561 1560 1560 1559 1559 1558 1557 1556 1555
1530 1531 1534 1536 1538 1540 1542 1544 1546 1547 1549 1550 1552 1552 1554 1555 1556 1556 1557 1557 1558 1559 1560 1560 1561 1561 1561 1561 1561 1561 1561 1561 1562 1562 1560 1559 1559 1558 1558 1557 1556 1556 1555
1529 1530 1532 1534 1536 1538 1540 1542 1543 1545 1546 1548 1549 1550 1551 1552 1553 1554 1555 1556 1557 1558 1558 1559 1559 1560 1560 1559 1559 1559 1559 1560 1560 1560 1559 1558 1558 1557 1557 1556 1556 1555 1555
1527 1529 1530 1532 1534 1536 1538 1539 1541 1542 1543 1545 1546 1547 1548 1549 1550 1551 1552 1553 1554 1555 1556 1557 1557 1558 1558 1558 1558 1558 1558 1558 1558 1558 1557 1556 1556 1556 1556 1555 1555 1555 1555
1526 1527 1528 1530 1532 1533 1535 1536 1538 1539 1540 1541 1542 1543 1544 1545 1546 1547 1549 1549 1551 1552 1553 1554 1555 1555 1555 1555 1555 1556 1556 1556 1556 1556 1556 1554 1554 1554 1554 1554 1554 1554 1554
1524 1525 1526 1527 1529 1530 1531 1532 1534 1535 1536 1537 1538 1539 1540 1541 1542 1543 1544 1545 1547 1548 1549 1550 1551 1552 1552 1553 1553 1553 1553 1553 1553 1553 1553 1553 1552 1552 1553 1553 1553 1553 1553
1520 1522 1523 1524 1525 1526 1527 1528 1529 1530 1531 1532 1534 1534 1535 1537 1538 1539 1540 1540 1542 1543 1545 1546 1547 1548 1549 1550 1550 1550 1550 1550 1550 1551 1550 1550 1551 1551 1550 1551 1551 1551 1551
1515 1517 1518 1519 1521 1522 1523 1524 1524 1525 1526 1527 1528 1529 1530 1531 1532 1534 1534 1536 1537 1538 1539 1541 1542 1544 1545 1546 1546 1547 1547 1547 1547 1547 1547 1547 1548 1548 1548 1548 1549 1549 1549
1510 1511 1513 1514 1516 1517 1518 1518 1519 1519 1520 1521 1522 1523 1524 1525 1527 1528 1529 1530 1531 1533 1534 1535 1537 1539 1540 1542 1542 1543 1543 1543 1543 1543 1544 1544 1544 1545 1545 1546 1546 1546 1547
1504 1506 1507 1508 1510 1511 1512 1512 1513 1513 1514 1514 1515 1517 1518 1519 1520 1521 1523 1524 1525 1526 1528 1530 1532 1533 1535 1536 1538 1538 1538 1538 1538 1539 1539 1540 1540 1541 1542 1542 1543 1543 1544
1499 1500 1501 1502 1504 1505 1505 1506 1506 1507 1507 1508 1509 1509 1511 1512 1513 1514 1516 1517 1518 1520 1521 1523 1524 1526 1528 1530 1532 1534 1534 1534 1532 1533 1534 1535 1536 1536 1537 1538 1539 1539 1540
1494 1494 1495 1495 1496 1497 1498 1499 1499 1499 1500 1500 1501 1501 1503 1504 1505 1506 1508 1509 1510 1512 1513 1515 1517 1519 1521 1523 1526 1528 1529 1528 1527 1527 1527 1529 1530 1531 1533 1533 1534 1535 1535
1490 1490 1490 1490 1490 1490 1491 1491 1491 1491 1491 1492 1494 1494 1495 1496 1496 1498 1499 1501 1502 1504 1506 1508 1509 1512 1514 1515 1517 1519 1521 1522 1523 1522 1522 1523 1525 1526 1527 1528 1529 1529 1530
1489 1487 1486 1486 1485 1485 1485 1485 1485 1485 1485 1487 1487 1487 1488 1488 1488 1489 1491 1493 1494 1496 1498 1500 1501 1503 1505 1507 1509 1511 1513 1515 1516 1518 1518 1518 1519 1520 1521 1522 1523 1523 1524
1487 1485 1484 1483 1482 1481 1480 1479 1479 1478 1479 1479 1480 1480 1480 1481 1481 1481 1482 1484 1485 1487 1489 1491 1493 1495 1497 1499 1500 1502 1505 1506 1507 1510 1512 1512 1513 1514 1515 1516 1517 1517 1518